Theta_e
312 312 313 313 312 311 309 306 306 307 309 309 310 312 312 312 312 312 312 311 308 308 308 308 309 308 308 310 313 311 310 315 320 319 320 317 314 314 309 310 313 321 333 339 335 332 330 331 340 347 346 347 348 349 351 352 352 354 361 355 346 349 355 357 361 360 361 365 363 362 361 363 364 362 357 356 357 356 355 351 349 350 351 350 349 348 348 348
313 313 313 313 312 312 312 310 308 310 309 310 311 311 312 313 313 312 311 311 310 308 308 308 308 309 309 310 312 310 313 318 322 321 322 319 319 314 307 312 313 321 332 337 333 330 328 330 342 347 344 347 349 350 352 352 352 356 358 354 352 356 356 356 360 358 360 364 364 363 361 362 363 360 357 359 359 358 356 353 350 350 350 350 349 349 348 348
313 313 313 313 313 313 312 312 311 312 312 311 311 311 312 313 313 312 311 312 311 309 308 308 308 309 309 310 311 312 315 321 324 326 327 322 321 314 308 313 313 321 334 335 331 328 328 333 343 345 344 349 350 350 353 352 354 355 354 356 356 354 352 354 359 359 358 361 365 363 361 363 361 356 358 360 359 358 355 352 352 352 350 348 348 349 348 347
313 313 313 313 312 312 313 313 311 312 313 312 311 311 312 312 313 312 312 312 311 309 308 308 308 308 310 310 310 313 319 325 326 331 329 321 320 311 309 314 312 323 335 334 329 325 326 335 342 342 343 348 349 350 352 352 353 354 354 355 352 351 349 349 355 357 356 360 364 362 362 362 359 356 360 359 358 358 354 350 351 350 350 348 346 348 349 348
313 313 312 312 312 312 313 312 312 312 313 313 312 312 312 312 312 312 312 311 311 310 308 308 308 308 310 309 310 315 322 324 324 333 328 320 317 309 312 315 313 327 336 330 328 325 327 334 337 339 342 346 349 350 350 350 351 351 352 350 348 347 347 345 349 355 355 359 363 362 363 362 357 358 361 360 361 360 352 349 349 347 349 348 345 347 349 349
313 312 312 312 312 312 312 311 312 313 312 312 312 312 312 312 312 312 312 311 311 309 308 308 308 309 310 308 312 319 327 321 326 333 324 317 314 309 313 314 320 333 333 328 327 326 328 330 334 338 339 344 348 349 348 348 348 351 350 346 345 343 344 343 344 349 353 361 363 361 363 361 358 359 360 359 362 359 352 350 348 347 350 350 348 348 347 347
312 312 312 312 312 312 312 311 312 312 312 312 312 312 312 311 311 312 311 311 311 310 309 309 308 310 309 310 316 323 326 322 333 330 316 313 311 308 314 319 330 335 328 328 327 325 326 327 331 332 334 342 348 348 347 347 348 350 349 345 344 341 341 339 340 345 352 360 362 359 362 361 361 361 359 359 359 355 351 349 347 349 351 351 348 347 347 348
312 312 312 312 312 312 312 312 312 313 313 312 312 312 312 311 312 312 312 312 311 310 310 308 309 309 309 314 321 323 320 325 336 325 310 312 312 311 321 328 332 329 324 327 326 325 325 325 326 326 330 338 346 348 346 346 348 348 348 344 342 339 337 336 336 341 348 357 358 360 362 362 361 361 360 360 356 352 351 349 347 348 348 349 347 346 347 348
312 312 312 312 312 312 312 312 312 312 312 312 312 312 312 312 312 313 313 313 311 311 309 308 309 308 311 317 319 317 321 329 332 322 313 320 322 322 330 332 328 324 325 325 325 325 323 323 324 324 328 332 342 347 344 346 347 345 345 342 338 336 337 336 335 340 349 355 359 361 362 361 359 360 361 358 355 351 351 349 348 348 346 348 347 346 347 347
312 312 312 312 311 311 311 312 312 312 312 312 312 312 312 312 313 313 313 313 312 311 309 309 309 309 316 321 319 316 325 333 330 322 324 330 332 331 332 330 325 324 325 324 324 325 323 322 323 326 330 332 340 345 343 344 341 339 339 337 336 337 340 340 340 344 350 355 359 360 361 361 358 359 361 356 353 351 351 351 348 348 348 347 346 346 350 349
312 312 312 311 311 311 311 312 312 312 312 312 312 312 313 313 314 314 314 313 313 311 309 310 308 312 321 321 318 319 326 335 329 324 330 334 334 331 329 327 325 324 324 323 324 324 323 325 325 326 330 334 339 343 342 339 336 335 335 336 336 340 343 343 345 348 353 358 357 358 362 361 358 358 361 355 352 351 352 352 348 349 348 347 347 346 350 351
311 311 311 311 311 311 311 312 312 311 311 312 312 312 313 314 315 315 314 313 312 310 309 310 309 316 323 319 318 323 328 335 328 326 330 331 331 328 325 325 324 323 323 323 323 324 323 325 327 327 331 335 338 340 339 337 335 335 335 337 337 341 344 346 350 349 354 359 355 357 360 360 361 359 359 355 352 353 352 352 350 349 348 348 347 347 348 349
311 311 311 311 311 311 312 312 312 311 311 312 312 313 315 315 316 315 315 313 311 310 310 310 313 319 324 320 319 321 328 335 327 326 328 326 328 325 323 323 323 323 322 323 323 323 323 324 326 328 331 332 336 336 335 335 335 337 336 337 335 337 344 348 352 352 356 357 356 357 352 353 363 358 356 355 352 353 353 353 351 349 349 348 348 348 347 349
310 311 311 311 311 312 312 312 312 311 311 312 312 314 315 315 317 316 314 312 310 310 310 311 317 321 324 323 323 319 326 333 327 327 326 325 326 324 323 321 321 322 321 322 323 323 323 325 326 328 330 329 333 334 333 336 336 339 336 336 334 331 338 351 352 354 359 356 355 358 349 351 363 358 354 355 352 354 354 353 352 350 350 349 349 349 347 347
311 311 312 312 312 312 312 313 312 312 312 312 313 314 314 314 316 315 313 312 310 310 311 316 320 324 324 323 324 321 325 330 327 326 325 325 325 324 323 321 321 320 320 321 322 323 323 324 324 326 329 329 333 334 337 338 338 339 331 328 332 327 335 353 351 353 360 357 355 360 354 355 361 358 354 355 352 353 355 355 354 351 351 350 350 350 347 347
312 312 312 312 312 312 313 313 312 312 312 313 314 313 312 312 314 313 311 310 310 311 317 323 324 325 326 323 325 326 327 330 327 326 326 325 326 326 324 322 322 321 321 321 320 322 323 323 323 324 330 331 332 335 337 335 333 339 332 323 326 324 332 346 349 351 356 357 356 360 358 355 357 358 354 355 353 354 356 356 355 353 352 352 351 350 348 347
312 312 313 312 313 313 313 313 312 312 312 314 314 312 312 311 311 311 310 312 313 317 323 327 324 325 325 322 325 327 327 325 325 328 328 327 327 326 325 324 324 323 323 321 320 322 323 324 324 324 330 332 333 336 333 327 324 332 333 325 325 326 329 337 344 349 353 357 358 361 360 355 356 358 356 355 353 355 357 356 356 354 353 353 351 350 349 348
313 313 313 314 313 313 314 314 313 312 312 314 313 312 312 311 312 313 315 319 321 322 325 324 324 325 322 319 323 323 321 320 323 331 329 328 328 326 326 324 324 323 321 321 320 320 323 325 325 326 330 331 334 334 328 326 326 326 328 324 322 326 330 336 345 349 352 356 359 359 358 357 357 357 357 356 353 355 356 357 355 354 354 354 353 351 349 349
313 314 314 314 314 314 315 314 313 313 313 315 314 315 314 314 317 320 321 322 323 324 324 323 325 324 319 319 321 319 319 318 323 331 329 328 326 326 328 324 323 322 320 321 319 319 323 326 328 328 330 332 333 334 331 333 333 332 331 327 323 323 328 338 347 350 353 354 357 359 356 356 358 356 357 355 354 356 356 357 357 357 356 355 354 352 351 350
314 314 314 315 315 315 315 314 313 313 313 315 317 319 319 319 321 322 322 320 320 319 318 321 323 321 319 320 318 318 316 316 322 327 328 327 326 326 327 324 322 320 320 322 319 319 322 325 328 329 331 332 333 335 335 334 334 335 334 329 326 323 325 333 340 346 353 353 353 357 356 355 356 356 357 354 355 356 356 359 358 358 357 357 356 354 353 352
315 315 315 315 315 315 315 314 313 313 314 315 318 320 319 318 318 318 318 317 317 317 316 317 319 319 319 318 319 318 316 315 318 323 326 326 324 325 325 323 321 321 321 321 320 319 320 322 326 330 334 335 334 335 335 333 334 335 332 328 325 324 325 328 331 335 347 352 349 350 350 351 353 354 354 354 355 356 355 357 358 357 357 357 357 356 355 352
315 316 316 315 315 314 314 313 313 314 313 314 318 320 317 317 317 316 315 315 316 315 315 315 316 317 317 317 318 317 316 315 316 321 326 325 322 324 325 323 321 321 322 321 321 319 317 320 326 331 334 334 333 334 334 334 335 333 333 328 324 325 326 327 330 331 340 347 345 343 342 342 346 348 352 354 354 354 354 355 355 355 356 357 357 357 356 354
316 316 316 316 314 313 313 313 313 314 314 317 320 318 317 317 316 315 315 316 315 314 314 315 315 316 316 316 316 317 316 315 315 319 323 323 320 321 324 323 322 322 322 322 322 317 314 319 327 332 332 333 333 334 334 335 334 333 331 325 322 326 324 321 326 333 337 339 340 341 335 336 341 343 347 350 350 352 352 353 354 355 357 357 355 355 355 355
316 317 317 316 313 313 313 313 314 316 316 319 319 317 317 316 316 315 314 317 316 315 315 315 315 316 315 313 314 316 315 315 316 317 320 321 319 318 322 324 323 322 322 323 323 319 318 323 331 333 331 332 333 333 335 333 331 333 333 327 325 328 325 323 326 331 329 329 337 336 325 326 336 338 342 347 348 350 351 353 355 356 358 356 355 355 354 354
316 317 318 315 314 313 312 313 317 318 317 319 317 317 317 316 316 315 315 317 315 315 316 315 315 315 313 312 313 314 315 315 317 318 318 319 317 317 320 323 323 323 322 322 323 322 326 329 331 331 331 331 331 332 334 332 327 328 333 333 330 331 329 329 328 326 320 320 330 330 319 320 331 337 342 347 347 349 352 353 354 356 357 357 355 354 353 353
316 317 318 316 314 313 313 317 318 317 318 319 317 317 317 317 316 315 317 317 313 314 317 315 314 314 312 312 314 314 314 315 317 319 319 318 318 318 320 322 324 324 323 323 324 324 328 330 330 331 330 329 331 330 331 333 325 322 330 334 334 333 331 329 328 322 315 317 326 329 322 318 327 339 347 350 351 354 353 353 353 355 357 356 356 354 353 352
317 318 319 317 314 314 316 318 317 316 318 318 316 317 317 317 315 315 317 314 311 315 316 314 313 312 311 313 313 313 314 315 316 318 317 316 317 318 320 321 322 324 326 324 322 324 329 330 329 331 331 331 330 328 330 332 324 321 329 332 332 333 331 330 327 321 319 320 323 326 325 318 322 338 349 350 352 357 357 356 355 354 355 356 355 354 353 353
317 318 319 318 315 314 316 317 317 318 317 317 317 317 317 316 314 317 316 312 312 314 314 313 312 312 313 313 314 314 315 316 316 315 315 316 316 317 320 321 321 323 327 323 318 323 329 329 329 331 332 331 330 329 331 330 326 325 329 329 329 330 331 330 327 322 322 321 316 320 324 318 321 337 348 349 350 352 354 354 354 355 355 355 355 354 353 352
317 317 318 318 316 316 315 315 318 319 317 316 317 317 317 315 316 318 317 313 314 313 313 312 311 312 313 314 314 315 315 315 315 315 316 316 315 317 318 320 321 322 324 322 320 323 325 325 328 330 329 328 329 330 331 329 329 328 327 327 328 329 329 330 328 322 320 319 314 317 321 318 321 332 339 345 347 348 353 352 350 352 354 356 355 354 353 352
317 316 317 317 318 319 316 316 317 317 316 316 317 317 317 317 318 318 314 313 313 312 312 313 313 313 314 314 314 315 316 315 315 315 315 316 315 316 316 316 320 322 323 321 320 321 320 319 323 324 322 322 323 325 326 328 329 327 326 326 325 326 329 327 326 321 318 317 316 316 320 319 321 330 337 343 346 347 350 351 349 349 349 354 356 354 353 352
316 316 315 316 318 318 317 319 317 316 317 318 319 319 318 318 319 315 312 313 312 312 313 312 313 313 313 315 314 315 315 314 316 316 316 316 316 317 316 316 319 321 320 318 317 318 318 319 318 317 317 317 319 321 323 325 326 325 325 324 319 320 322 321 321 320 317 317 317 318 320 317 320 330 339 345 347 347 347 349 350 349 349 350 353 353 353 352
316 315 315 315 314 315 317 318 317 316 318 319 320 320 318 317 315 313 312 312 311 312 313 313 313 314 314 315 315 315 316 315 315 316 315 316 316 316 316 317 317 316 314 313 314 316 317 317 317 316 316 317 320 319 319 323 325 325 324 319 315 315 317 317 317 317 317 316 317 319 318 317 323 334 341 345 345 344 346 346 348 348 349 349 350 352 353 352
316 315 315 314 313 315 316 317 316 317 319 319 320 320 319 315 313 312 312 311 311 312 313 313 314 314 315 314 314 315 315 314 315 315 315 315 315 315 315 316 316 315 314 312 312 311 312 316 316 316 316 316 318 317 315 318 322 323 319 315 313 314 315 316 316 316 316 315 315 319 318 318 327 337 342 344 343 341 343 344 346 348 348 349 348 349 351 352
317 315 315 314 314 314 315 317 317 317 319 320 320 319 316 313 313 313 312 312 312 312 312 313 314 314 314 314 314 314 314 314 315 315 316 316 315 315 315 315 315 316 317 314 312 311 310 313 314 315 315 315 318 317 316 318 321 323 324 320 315 314 314 314 314 314 315 313 314 317 317 318 325 334 341 342 341 340 341 342 345 347 347 348 347 348 349 351
317 317 315 317 317 315 315 316 316 317 319 319 318 316 314 312 312 312 312 312 312 312 313 313 314 314 313 314 314 315 314 313 314 316 315 315 314 314 315 314 315 316 316 314 313 313 311 310 313 314 315 315 316 317 317 319 319 321 324 320 315 316 317 313 312 313 313 313 314 315 319 325 332 337 341 342 341 340 340 341 343 345 346 346 347 347 348 349
319 319 317 318 317 314 313 314 315 317 318 318 316 314 313 312 312 312 312 313 312 313 313 313 314 312 311 313 314 314 315 314 315 315 314 314 314 314 314 314 313 315 316 315 315 314 311 311 314 315 314 316 316 316 318 317 316 319 319 316 318 322 320 314 313 314 312 312 314 315 322 329 333 336 340 341 341 341 340 341 342 343 345 345 346 346 346 348
321 321 318 317 315 313 313 312 315 318 319 316 315 313 313 313 313 312 313 312 311 313 313 312 312 312 310 311 313 314 314 314 314 314 313 314 314 313 314 314 313 314 314 315 315 316 313 311 313 315 315 316 315 316 318 317 317 318 315 317 321 322 321 318 315 314 312 312 314 314 319 323 323 329 339 340 341 341 340 341 341 342 343 343 344 345 346 346
321 321 319 316 314 313 313 311 315 319 318 316 316 314 314 313 312 312 312 312 311 313 313 312 311 313 312 311 312 314 314 313 313 314 313 314 313 313 314 314 314 313 313 314 315 316 315 311 311 315 315 315 316 316 316 317 318 318 316 319 321 316 315 316 315 314 312 312 314 315 318 321 320 326 337 340 341 341 341 340 340 340 341 342 342 344 345 345
320 320 318 315 314 314 313 314 317 319 317 316 316 314 314 313 313 313 312 312 313 313 314 313 312 314 314 313 313 314 314 313 313 314 313 313 314 313 314 314 314 313 313 315 316 316 316 313 311 314 316 315 316 316 314 315 318 319 318 321 321 317 316 315 315 315 311 310 316 319 319 322 325 331 338 341 341 340 340 340 340 340 339 340 341 342 343 345
319 317 316 315 314 314 314 316 318 317 316 316 315 314 313 313 313 313 313 313 313 314 314 314 314 314 314 314 314 314 315 314 314 314 314 313 313 313 313 314 315 314 313 314 316 316 318 315 310 312 314 313 314 314 314 314 315 317 316 316 318 318 318 318 316 316 313 311 315 318 319 321 327 334 340 340 339 338 339 339 338 338 337 338 339 340 341 343
318 316 316 315 314 314 314 317 316 315 315 315 315 314 314 314 313 313 313 313 313 314 314 315 315 314 314 314 314 314 315 315 314 315 314 314 314 313 313 313 314 314 314 315 315 315 317 316 311 311 311 311 312 313 313 314 315 316 316 315 315 316 316 316 315 315 314 314 314 315 319 322 328 333 337 338 338 336 337 337 336 337 337 337 338 338 338 339
317 315 316 315 314 315 316 316 315 315 315 314 313 313 314 314 313 313 314 313 314 313 314 315 315 315 315 315 315 315 315 315 316 316 314 315 315 314 313 313 313 314 314 314 313 314 318 318 313 311 311 312 313 313 313 313 313 315 316 316 317 317 315 313 313 314 313 314 316 316 319 323 328 334 335 336 336 335 335 336 336 336 336 337 337 336 336 337
316 316 316 315 314 315 316 315 314 315 313 313 312 312 312 313 312 313 314 313 314 314 314 314 314 314 315 314 315 315 315 315 315 316 315 315 313 313 312 313 313 315 315 314 314 313 316 317 315 312 314 313 313 314 313 313 314 315 315 316 316 317 316 315 317 319 315 313 314 315 320 323 327 333 334 333 334 334 333 334 335 335 335 336 337 336 335 336
315 315 315 315 315 314 315 315 314 314 313 313 313 312 312 312 312 313 313 313 313 313 314 314 314 314 314 314 315 315 316 316 315 315 315 314 313 311 311 312 314 315 315 316 316 313 313 316 316 313 313 313 313 314 314 313 314 314 315 316 316 317 318 317 320 321 317 316 316 314 318 323 327 332 333 332 334 333 332 333 332 333 334 334 336 336 335 335
316 317 315 314 315 315 315 315 314 314 314 313 313 313 312 311 312 312 312 312 313 314 314 313 313 313 314 314 315 315 315 316 316 315 315 314 312 311 311 311 313 315 314 315 315 313 315 318 318 315 312 312 314 315 313 313 314 314 314 314 315 315 317 317 318 317 316 319 321 317 320 325 329 332 332 331 332 333 332 332 332 332 333 333 335 335 334 334
316 318 316 314 315 314 314 314 314 315 315 315 314 313 313 312 311 311 312 312 312 312 313 313 313 314 314 314 315 315 315 315 315 315 315 314 313 311 310 310 312 313 314 314 313 314 316 318 319 320 316 316 317 317 316 315 314 312 312 312 313 314 316 318 317 316 317 319 320 321 325 327 329 330 332 332 332 331 332 332 332 333 332 332 334 334 333 333
317 317 317 317 316 315 314 314 314 315 315 315 315 314 313 313 312 311 312 312 312 312 313 313 313 314 314 315 315 315 315 315 316 316 316 314 313 311 310 310 310 312 314 313 312 314 316 314 316 318 316 315 316 315 314 314 314 313 311 311 312 313 316 317 316 318 320 319 318 322 327 328 328 330 331 331 331 331 331 331 331 331 331 331 332 332 332 332
318 317 316 317 317 316 316 315 314 315 314 314 314 314 313 313 313 312 312 312 311 312 314 314 314 314 314 315 315 316 317 316 317 317 315 315 314 312 311 310 310 312 313 311 311 314 315 313 313 314 313 313 313 313 313 313 313 312 312 312 311 312 314 316 316 316 319 319 319 323 327 329 329 329 329 329 330 330 331 331 330 330 330 330 331 331 330 329
317 316 315 316 316 315 314 314 315 314 315 316 315 314 314 313 313 312 312 312 312 313 314 314 314 313 314 315 316 317 318 317 317 317 316 315 315 314 313 313 311 311 311 311 312 314 315 314 313 313 312 313 312 312 312 312 311 311 311 311 311 311 312 314 314 315 317 320 321 325 329 330 328 327 328 329 329 328 329 331 330 330 330 330 330 330 329 328
318 318 317 316 315 316 314 314 315 315 315 316 316 315 314 314 313 312 312 313 313 313 313 313 313 313 313 314 316 317 317 316 317 316 316 315 314 314 315 314 312 312 311 312 312 313 315 316 313 312 313 312 312 311 311 311 311 311 311 311 310 311 311 311 313 314 315 318 323 326 330 330 328 327 327 328 328 328 328 331 331 330 330 329 329 329 329 329
321 319 320 319 316 316 316 314 315 316 315 316 316 315 314 314 314 313 312 313 313 314 313 312 313 313 313 314 315 315 314 314 315 314 314 314 313 313 314 313 313 313 312 313 313 313 315 315 313 312 312 311 311 311 310 311 310 309 309 310 309 310 311 312 313 315 317 320 323 323 325 328 327 326 326 326 327 328 328 329 331 330 329 329 329 329 329 329
321 319 319 319 316 315 316 314 314 316 316 316 316 316 315 313 313 314 314 313 312 313 313 313 314 314 315 315 315 314 314 313 313 313 312 312 312 311 312 311 311 313 313 313 313 314 314 314 312 311 311 312 311 310 310 310 309 308 309 311 311 312 313 313 313 316 320 322 321 319 323 328 327 325 326 326 326 327 328 327 328 329 330 329 329 329 329 328
Wind_Speed
16 15 15 15 15 15 14 12 12 12 11 11 12 13 13 13 13 12 12 11 10 10 11 12 13 12 9 7 6 8 9 5 6 8 13 11 10 11 10 17 23 29 26 20 19 18 15 12 12 13 12 8 6 4 4 4 3 3 3 2 1 5 5 4 5 4 3 7 10 10 9 8 10 8 7 8 8 9 9 7 8 8 8 12 20 26 28 26
16 16 16 15 15 15 15 13 12 12 11 11 11 12 13 13 14 14 13 11 10 10 11 12 12 11 7 7 8 9 8 6 11 13 15 11 8 12 14 20 27 32 27 22 22 20 16 13 14 13 10 6 5 4 3 3 4 4 3 0 3 5 6 6 5 4 2 6 9 10 8 7 10 10 9 9 10 10 10 9 9 11 13 16 22 27 27 26
17 17 16 16 16 16 16 14 13 13 12 11 12 12 13 14 14 14 13 12 10 9 10 11 11 9 6 7 9 8 7 8 11 10 7 5 9 14 20 24 29 32 26 21 21 19 16 15 17 14 9 6 5 5 3 3 3 3 3 1 5 5 7 8 6 3 2 6 9 10 8 6 9 10 8 10 12 11 10 10 10 12 15 17 21 25 26 24
17 17 17 17 17 17 16 15 14 14 13 12 12 13 13 14 14 14 14 13 11 9 9 10 10 8 6 8 9 7 7 9 4 3 1 2 12 18 24 26 30 31 22 18 18 15 14 15 16 13 9 7 6 6 5 5 3 1 2 2 6 4 5 8 6 3 3 5 8 9 9 8 9 8 7 10 11 9 8 10 11 13 17 19 21 23 24 23
17 17 17 17 17 17 17 16 15 15 15 14 14 14 14 14 15 14 14 13 12 9 8 10 10 7 5 8 8 5 6 6 3 5 4 3 15 23 26 28 30 27 19 17 16 13 14 14 13 10 7 6 7 7 6 7 4 2 2 2 4 3 4 7 5 3 2 5 8 9 9 8 9 7 8 10 7 5 7 9 11 14 17 20 22 23 23 22
17 17 17 17 17 17 16 16 16 16 16 15 15 15 15 15 15 15 14 13 11 9 8 9 9 6 5 7 7 4 6 2 5 4 4 6 19 25 27 29 28 22 18 19 16 14 14 13 12 9 7 6 8 7 5 7 6 3 3 2 2 3 4 4 4 3 3 5 8 9 8 7 9 8 8 9 3 5 7 9 11 14 18 20 22 22 21 20
17 17 17 17 18 17 17 17 17 17 16 16 17 17 17 17 16 15 14 12 10 9 8 8 7 5 5 6 4 5 8 2 5 3 1 12 21 25 27 27 24 19 20 21 17 14 13 13 12 8 7 6 8 7 3 7 7 4 1 2 2 3 3 3 3 2 4 5 7 7 7 8 9 7 8 7 4 6 8 9 11 15 19 20 19 19 19 19
17 17 17 17 18 17 18 18 18 18 17 17 18 18 19 18 17 15 13 11 9 8 8 7 5 5 3 3 5 6 6 3 6 3 6 15 20 24 26 23 20 19 21 21 17 15 13 14 12 8 8 5 6 8 4 6 8 6 4 2 3 4 4 4 2 2 4 5 6 8 8 9 7 5 8 8 6 8 9 11 13 15 18 18 17 18 18 18
18 18 18 18 18 18 18 19 19 18 18 18 19 20 20 19 18 16 14 10 8 9 8 6 5 4 2 4 7 5 2 5 4 7 11 17 19 23 23 18 19 20 20 19 17 16 12 12 12 7 6 4 5 7 6 6 5 4 4 4 5 5 5 5 2 3 5 5 6 9 8 8 7 5 8 8 7 10 11 12 14 15 17 16 16 17 17 16
19 19 19 18 19 19 19 19 20 19 19 19 20 21 21 20 19 17 14 10 8 9 7 5 5 4 4 6 7 3 5 5 8 13 15 18 19 21 18 16 20 19 18 17 17 16 10 9 10 5 5 4 6 6 6 4 0 1 4 6 6 4 5 5 1 6 7 6 8 9 8 8 8 6 6 9 9 11 13 13 14 14 15 15 15 15 15 16
19 19 19 19 20 21 20 20 20 19 20 20 21 21 21 20 19 16 13 9 9 9 6 5 5 5 6 8 7 1 5 5 11 14 16 18 18 18 15 17 20 17 16 15 15 15 10 7 8 5 3 4 6 6 6 2 1 1 5 5 3 1 4 5 2 8 6 6 8 8 7 8 8 6 5 10 11 12 14 15 15 14 14 14 15 14 13 14
19 19 20 20 21 22 21 20 20 19 20 20 21 21 20 19 17 14 10 8 8 8 7 6 7 5 6 8 5 2 5 6 13 14 15 15 15 13 12 17 17 15 14 13 13 13 9 6 9 8 1 3 6 5 4 3 2 4 5 3 3 4 3 4 4 7 5 6 7 7 6 7 9 7 8 12 12 13 14 14 15 14 13 13 14 13 12 14
19 19 20 21 22 22 22 21 19 19 19 19 20 20 19 16 13 10 6 7 8 8 8 8 8 5 7 5 2 3 4 7 13 15 15 12 11 9 10 13 12 11 12 11 12 11 8 7 10 8 1 4 5 2 1 5 5 5 5 4 3 6 3 2 4 6 4 6 7 6 3 5 9 9 12 13 13 14 13 13 14 13 12 12 13 12 12 14
20 21 21 22 22 23 22 20 19 18 18 19 19 17 15 12 10 6 4 8 9 10 9 8 8 5 7 1 6 3 4 9 14 15 14 12 10 9 10 10 8 8 8 8 10 10 6 6 9 7 3 5 2 0 4 7 6 5 5 4 5 5 6 4 5 7 6 5 7 5 2 3 8 10 13 13 13 14 13 13 13 12 12 12 12 12 12 14
22 23 22 22 22 22 21 20 18 17 17 17 15 12 10 8 5 1 6 9 10 10 9 8 7 5 6 3 6 4 8 11 14 15 13 13 11 10 11 10 9 8 6 5 7 8 5 6 8 7 5 4 3 5 7 6 6 6 4 6 7 3 7 6 4 7 5 5 8 6 2 4 9 11 13 13 13 14 12 13 13 12 13 12 12 12 12 13
24 24 23 23 22 22 20 19 17 16 16 14 10 6 6 6 3 6 9 11 11 11 8 6 7 7 5 4 7 5 8 9 11 13 12 11 9 9 12 11 9 9 7 5 6 7 6 6 6 5 5 5 6 8 6 6 7 7 6 6 7 5 7 7 5 6 3 5 9 8 3 4 9 10 12 12 13 13 11 12 13 12 13 12 11 11 11 13
25 25 25 23 22 21 19 18 16 14 14 9 4 6 9 9 11 12 13 11 9 9 5 2 4 7 3 5 7 7 7 7 9 13 12 8 6 11 15 11 9 10 8 6 6 8 7 7 5 3 5 5 6 7 7 8 8 7 7 4 5 4 5 7 7 7 5 5 8 9 5 4 9 9 11 12 13 12 11 11 12 11 12 11 11 11 12 12
26 26 25 24 21 20 18 17 14 14 11 3 5 10 12 13 14 12 10 9 6 6 5 4 3 5 3 7 6 6 8 8 9 12 12 8 8 13 14 10 10 11 10 8 8 9 8 6 6 6 7 6 6 7 8 9 8 10 9 5 5 4 2 5 6 7 8 7 6 7 6 3 8 9 10 11 12 12 11 10 11 11 11 11 11 11 12 13
27 26 25 23 21 19 17 15 13 12 7 4 9 10 11 10 8 4 6 6 5 3 1 4 5 3 4 9 6 7 7 8 10 12 13 11 11 13 10 10 12 12 10 8 9 10 8 6 7 7 8 8 8 10 7 5 6 9 9 6 6 6 4 6 7 7 8 7 6 6 5 4 7 8 9 11 11 11 10 10 10 10 11 11 11 11 12 13
28 27 25 22 20 18 15 13 12 9 2 8 9 4 4 3 3 5 6 7 7 5 4 3 4 3 5 8 5 6 8 9 9 11 14 14 14 13 10 10 12 10 9 9 10 10 8 7 8 8 9 11 11 9 4 2 2 4 7 6 4 5 5 7 8 8 6 5 5 6 5 4 5 7 9 10 11 11 11 11 10 10 10 10 11 12 12 13
28 26 24 21 19 16 13 12 8 6 1 10 9 5 2 2 2 0 2 6 6 5 5 2 3 5 0 2 2 3 6 8 8 11 15 15 14 12 9 10 11 8 8 10 10 9 9 8 10 10 9 9 9 7 4 4 4 4 6 6 6 5 6 7 6 8 7 4 3 5 6 5 5 7 9 10 12 12 12 13 12 12 12 11 12 12 12 11
28 24 21 19 18 14 12 9 3 1 4 9 9 5 3 5 4 3 3 4 4 3 5 3 4 4 2 1 0 1 4 8 10 11 13 14 13 9 8 9 10 8 8 10 9 8 9 9 10 11 7 7 7 6 6 5 5 5 6 6 6 5 7 7 6 7 7 5 2 3 6 5 6 6 9 11 11 11 12 14 13 14 14 12 12 12 12 12
26 22 19 18 16 14 9 3 3 4 4 5 5 0 3 4 4 2 5 5 3 4 4 4 4 3 4 3 3 4 7 9 11 12 13 13 11 7 8 10 9 8 10 11 9 8 9 8 11 11 7 8 8 6 7 6 6 6 5 7 7 7 5 5 7 8 5 3 2 2 6 4 6 5 8 11 11 9 11 13 13 13 14 13 13 12 12 13
25 21 17 16 15 11 4 6 5 4 3 2 1 4 3 4 3 3 5 4 2 4 2 1 2 1 2 4 4 6 5 4 6 12 14 13 9 6 8 9 8 8 10 12 12 10 7 6 10 11 9 10 9 8 8 7 7 7 6 7 5 6 4 2 6 6 5 4 5 5 7 4 6 6 7 9 10 9 9 10 11 11 11 11 12 13 13 14
23 20 16 14 13 7 4 7 4 3 3 3 3 4 4 4 2 4 5 3 4 4 3 3 2 1 3 2 3 4 5 6 3 8 12 10 6 6 6 6 6 8 11 13 12 9 5 6 11 12 11 10 9 8 10 9 7 8 9 8 3 3 4 3 4 4 5 6 7 6 7 5 6 3 2 4 6 7 5 6 8 8 9 10 11 12 13 13
22 19 15 11 9 4 4 4 4 4 5 3 3 3 4 6 3 4 5 4 6 5 5 5 2 2 2 2 3 5 7 6 5 6 8 4 2 3 4 5 4 5 11 11 8 5 5 8 11 12 11 11 9 8 10 9 8 7 8 8 5 3 5 4 4 5 5 3 5 4 6 4 7 5 6 3 3 4 4 3 5 6 8 9 10 10 12 13
21 18 13 8 7 4 0 1 4 5 4 3 3 4 6 6 3 4 5 4 6 2 3 4 1 2 2 1 3 5 6 9 7 6 4 1 2 6 5 6 5 4 8 8 5 4 7 10 11 11 11 10 8 7 9 9 9 4 6 6 8 8 8 7 6 6 3 1 3 5 5 4 5 6 5 3 5 6 4 2 3 5 8 9 10 11 12 12
19 16 11 6 6 6 3 2 2 4 1 4 2 5 6 3 5 5 6 4 6 0 2 4 2 0 1 2 4 3 7 9 7 6 4 0 1 7 7 6 7 8 9 8 5 7 9 9 11 11 11 8 8 8 8 11 10 1 5 4 6 7 9 8 7 6 2 2 5 7 5 5 4 7 5 5 6 6 5 3 1 2 6 9 11 12 13 13
16 14 10 7 5 4 3 1 3 2 3 3 4 6 5 4 5 5 5 2 3 1 1 3 2 3 5 5 5 6 7 4 2 5 4 2 1 3 3 2 4 9 12 10 4 7 7 4 6 10 8 4 6 6 6 11 9 2 4 4 4 5 7 7 7 6 3 5 8 7 8 7 3 6 4 5 5 6 6 5 5 5 4 6 10 11 12 12
13 11 10 9 6 3 1 3 3 2 2 4 5 5 5 5 5 6 4 3 1 3 2 0 2 4 7 7 7 7 7 7 5 6 5 4 4 2 1 2 3 7 11 9 2 6 8 5 3 3 1 2 1 3 4 9 7 3 5 6 5 5 5 5 5 4 4 7 9 8 8 8 3 4 4 5 6 7 6 6 7 7 6 4 6 10 12 12
10 10 11 10 7 4 5 2 3 3 6 6 5 6 6 5 5 4 4 3 1 4 3 2 4 5 8 9 8 7 8 8 5 5 6 5 6 5 3 3 5 5 8 8 4 8 9 7 5 3 4 3 3 5 5 7 6 5 7 7 7 6 5 5 5 4 6 7 9 9 7 7 5 4 6 6 6 7 7 7 9 9 8 7 5 6 9 11
6 8 10 10 9 6 6 4 4 7 7 6 6 6 5 4 3 2 5 2 2 2 1 2 5 7 9 9 8 7 7 7 5 5 6 5 5 5 3 1 1 4 7 7 7 8 7 5 6 5 3 2 5 8 7 7 8 8 8 8 7 7 6 7 7 7 8 6 5 8 8 5 2 5 6 8 8 7 8 8 9 10 9 7 6 5 6 9
3 4 8 10 10 8 7 7 7 6 5 5 6 5 5 3 3 3 3 2 1 3 1 2 6 10 11 10 8 8 8 7 5 5 5 5 6 6 6 7 6 4 4 7 8 8 6 5 5 5 3 2 3 6 5 7 10 9 8 8 7 7 8 9 8 7 9 6 4 5 7 6 6 5 3 7 8 8 8 9 9 9 9 8 6 5 4 7
3 2 7 11 12 11 9 5 3 3 4 6 7 6 4 3 4 1 3 6 4 4 3 4 7 10 9 8 6 5 6 6 5 4 5 4 5 5 5 8 9 6 3 5 7 6 6 7 3 1 1 2 3 2 3 2 10 11 8 8 8 6 6 8 8 9 9 8 7 7 6 5 7 4 2 7 8 8 9 9 10 10 9 9 8 7 7 4
4 4 8 11 11 13 12 4 2 2 5 6 5 3 1 4 4 1 4 5 3 5 6 5 7 10 9 7 6 3 3 4 4 5 6 5 5 5 4 6 10 8 4 3 4 3 3 6 5 4 3 3 3 3 5 4 7 8 6 7 6 4 4 4 4 7 9 8 7 7 3 3 7 7 5 6 6 8 9 10 12 12 12 10 9 9 9 8
4 3 6 8 8 12 12 4 1 3 5 7 2 3 4 4 4 4 4 3 2 3 6 8 6 7 8 6 6 5 3 3 5 5 7 7 8 8 5 5 8 8 5 2 2 2 2 5 6 3 3 4 4 2 2 3 2 5 7 7 2 3 3 3 1 4 7 8 7 7 6 7 7 7 6 5 5 7 10 11 13 13 13 12 11 11 10 10
4 2 4 9 12 13 12 5 1 4 6 5 2 5 3 4 4 5 4 4 3 2 4 6 2 1 6 7 6 7 6 5 3 2 4 4 5 7 6 5 7 8 7 4 0 0 1 4 6 3 4 5 3 0 1 2 3 3 5 5 4 2 4 4 3 5 7 7 6 8 10 9 7 5 5 4 4 7 10 12 13 14 14 14 13 12 12 12
6 4 1 11 15 12 10 5 3 6 5 1 7 5 3 4 5 5 4 4 2 4 5 3 2 2 4 7 6 6 4 4 3 3 4 3 3 6 5 4 6 8 7 6 2 1 2 3 7 3 3 5 2 3 4 3 1 3 1 1 2 4 6 5 5 6 9 8 6 9 10 7 3 3 6 4 4 6 8 11 12 14 15 14 13 14 14 12
6 5 2 11 14 10 8 6 6 6 2 4 6 5 4 6 7 6 3 3 3 4 3 2 2 0 2 4 7 5 1 2 4 4 2 1 2 5 6 3 4 7 7 7 3 1 3 2 5 4 3 4 4 2 2 4 3 1 2 2 3 4 3 5 6 5 7 9 7 8 9 5 2 4 7 6 6 6 7 9 11 13 15 14 14 14 13 12
5 4 3 11 15 9 7 6 5 1 3 5 5 4 4 6 7 8 5 3 3 4 2 3 2 3 5 4 6 5 3 4 5 2 3 3 3 5 6 5 5 6 6 5 3 1 3 3 2 6 5 5 2 2 3 3 1 2 5 5 5 4 2 3 5 4 5 6 7 9 8 5 4 4 6 6 6 7 7 8 9 11 13 14 15 13 12 12
4 2 4 12 15 10 7 3 2 4 4 6 6 6 5 4 5 7 8 5 4 5 5 5 5 5 6 5 5 4 4 5 5 4 4 3 2 4 6 7 7 7 6 3 2 4 2 2 1 5 5 3 4 6 5 5 5 3 2 1 1 4 4 5 7 5 4 5 3 6 7 7 4 3 5 5 6 7 8 8 8 10 12 13 14 14 13 12
3 1 5 12 14 9 5 3 5 4 4 5 5 6 4 3 4 6 6 6 5 6 6 7 7 6 5 5 5 5 5 5 4 4 5 5 6 6 6 7 6 6 6 1 3 5 3 2 0 4 4 5 7 5 3 3 4 3 3 3 3 3 4 6 6 6 6 5 3 2 6 7 3 4 5 5 6 7 8 8 8 10 11 12 14 14 14 14
3 4 5 11 11 8 3 5 5 4 6 5 4 6 5 4 6 6 6 6 6 5 5 6 6 6 5 5 5 6 5 4 5 5 6 7 8 7 6 7 6 5 5 1 2 3 3 2 1 4 5 5 6 3 1 1 3 2 3 4 3 2 2 4 4 3 5 6 3 5 5 7 4 5 5 5 6 7 7 9 9 9 9 11 13 13 13 14
4 3 4 10 8 6 3 4 5 5 6 5 6 7 7 7 9 8 8 8 6 5 6 7 6 5 6 4 4 5 3 2 4 5 4 5 5 5 6 7 6 4 5 4 3 3 2 1 1 3 5 5 6 5 4 3 2 1 3 4 4 4 3 4 3 4 5 1 3 7 5 7 6 6 5 5 7 7 8 9 9 9 9 10 11 12 12 13
1 1 3 9 9 4 3 4 4 5 7 7 7 7 6 7 8 8 10 10 8 6 6 6 6 6 6 4 5 5 3 2 4 3 4 5 5 5 6 7 7 6 7 7 6 4 2 1 2 3 4 5 4 3 2 3 3 3 3 4 4 5 4 3 2 5 5 1 2 4 4 10 9 8 7 6 7 7 8 9 9 9 10 10 10 10 11 12
2 1 2 4 6 6 5 4 3 4 5 5 5 5 6 7 6 7 8 8 8 8 7 6 4 4 5 4 6 6 5 5 5 5 5 5 5 4 5 5 7 8 7 5 5 4 1 1 3 3 3 2 3 4 4 2 3 3 3 4 4 5 5 4 3 4 3 3 3 4 7 12 12 9 8 7 6 7 8 8 9 9 9 10 10 9 10 11
1 2 3 2 3 4 4 3 3 3 2 1 2 3 4 6 5 5 6 6 6 5 5 5 4 2 4 4 5 6 6 7 7 6 6 5 5 5 4 5 7 6 4 3 3 3 2 2 2 4 5 6 6 6 5 3 3 3 2 2 3 4 4 3 1 2 2 2 5 6 7 11 11 8 7 6 6 6 7 7 8 8 8 9 9 9 11 12
2 1 2 2 2 2 3 4 4 3 4 3 2 1 3 5 5 5 6 5 4 3 2 4 5 5 5 3 3 5 6 7 7 6 5 5 4 4 3 4 6 4 2 2 3 3 2 2 2 2 4 5 5 5 4 3 3 2 1 1 2 2 2 3 4 4 4 1 5 8 7 8 9 7 7 6 4 5 6 6 7 7 8 9 9 10 12 13
2 3 2 2 2 3 4 3 3 4 5 4 3 2 3 5 6 5 4 4 5 5 3 5 7 6 5 3 2 5 4 3 5 5 4 4 3 1 2 3 3 3 2 3 4 2 2 2 2 2 4 5 4 3 2 2 0 1 1 1 0 0 1 2 3 3 3 4 7 9 9 8 7 5 6 5 3 4 5 4 6 7 8 9 9 10 12 12
2 2 2 1 3 4 3 2 1 2 4 2 2 3 3 4 6 6 4 4 5 5 4 7 8 7 6 6 5 6 5 4 5 6 3 3 2 0 1 1 2 3 2 2 3 2 3 1 2 2 3 4 3 2 1 0 1 2 2 2 3 3 3 3 2 3 3 4 6 8 8 7 5 4 5 5 2 2 3 3 5 6 8 9 9 10 11 12
3 3 3 0 3 2 1 2 1 1 3 2 2 4 3 4 6 6 6 7 5 6 7 8 9 7 7 9 8 8 7 6 6 6 3 2 2 1 1 2 1 1 1 2 1 1 1 2 3 4 4 4 4 2 2 2 3 5 5 5 6 5 4 4 3 2 2 3 6 6 5 5 6 4 4 3 2 2 3 3 4 5 7 8 9 10 10 11
2 1 3 2 1 1 1 1 0 1 2 4 4 4 4 6 5 3 4 5 6 7 7 6 6 5 6 8 8 7 6 5 5 5 3 2 2 2 2 2 1 2 2 1 0 0 1 2 3 4 4 3 4 2 2 3 6 6 5 6 6 4 3 3 4 3 1 2 3 3 2 5 5 3 3 2 1 2 3 2 3 5 6 7 8 9 9 10
Wind_Direction
346 344 342 341 340 339 340 342 341 339 338 339 338 334 331 330 329 327 326 324 319 310 310 313 320 328 325 331 329 316 329 301 262 228 230 257 236 223 204 180 169 160 159 159 157 154 158 168 164 172 178 176 198 198 191 221 251 256 253 238 88 70 80 64 73 84 103 134 144 154 166 148 138 145 144 149 144 135 139 133 118 109 95 104 121 133 140 146
344 342 340 339 339 337 337 339 340 337 335 335 332 330 328 326 326 323 322 323 318 308 304 307 316 326 322 324 326 321 325 271 254 248 243 260 236 208 184 176 172 164 163 165 167 165 163 164 164 175 180 175 179 175 192 204 216 250 275 181 70 54 72 56 58 95 128 143 146 158 169 160 146 147 162 159 143 146 145 137 132 121 112 116 129 137 141 147
341 340 339 338 337 335 333 335 336 332 331 331 329 328 324 323 324 321 321 320 317 306 297 301 309 320 317 316 323 325 317 277 260 244 242 247 206 191 173 175 174 167 167 171 172 172 168 163 165 175 186 184 172 175 197 195 207 244 275 88 77 53 74 64 50 73 84 137 153 161 164 166 152 151 172 163 150 161 158 148 149 137 134 137 139 141 145 151
339 338 337 336 335 333 332 333 333 330 329 330 329 325 322 321 320 319 320 317 315 303 290 294 302 313 309 307 322 330 295 273 252 140 35 220 182 179 170 173 173 168 172 175 174 176 170 164 170 182 197 190 171 185 198 188 204 239 264 65 70 41 61 61 52 65 82 143 158 158 161 168 157 156 173 165 157 167 164 154 153 145 145 147 146 146 150 154
337 337 336 334 334 332 332 334 332 329 330 330 328 325 322 321 318 318 317 315 312 299 285 285 295 308 295 301 324 330 275 259 101 76 346 224 175 172 170 171 171 169 174 174 170 174 168 167 178 189 205 194 172 190 198 187 213 239 218 47 46 14 38 47 54 80 89 140 154 160 166 162 157 163 175 175 164 159 159 152 148 146 148 152 150 150 153 158
337 336 335 334 333 332 334 334 332 330 330 329 327 324 322 321 319 317 313 312 305 292 279 279 291 298 288 306 326 295 263 290 69 22 335 181 169 168 171 169 167 168 173 171 167 172 171 174 183 188 207 202 182 190 188 184 213 236 174 84 8 11 22 19 51 96 116 148 162 165 159 154 165 166 174 183 140 100 137 142 143 144 149 153 152 152 157 161
336 335 334 334 332 332 335 334 332 331 329 328 326 325 324 321 318 313 310 306 297 287 272 275 282 280 295 313 312 247 250 338 68 28 75 165 166 167 170 166 164 170 175 174 174 177 174 180 188 190 200 200 193 193 170 184 212 250 215 69 2 3 357 356 46 117 145 154 164 153 149 169 177 158 163 178 111 102 127 135 140 141 148 154 154 157 159 161
335 334 333 332 330 332 333 332 331 330 329 328 327 326 323 319 314 309 306 300 290 278 263 269 266 259 289 287 277 238 226 53 86 123 144 157 161 164 165 163 170 175 178 180 178 179 177 185 190 190 200 198 194 193 174 189 202 229 256 355 330 328 347 356 16 163 149 148 157 151 163 177 167 138 159 165 130 131 135 134 138 141 149 155 157 159 159 162
333 333 331 330 329 330 331 331 329 330 329 329 328 326 322 317 313 308 303 295 279 267 256 256 242 239 259 252 269 244 151 57 118 149 144 149 149 156 160 165 177 175 178 181 180 182 182 189 191 195 220 204 184 192 193 210 194 202 270 320 309 324 1 352 348 159 150 146 160 162 167 163 147 147 161 154 139 141 138 137 141 146 153 158 160 161 161 163
332 331 330 328 327 328 331 329 327 330 329 329 329 324 320 316 313 307 298 285 264 253 241 237 221 210 236 245 253 223 84 73 148 147 146 148 145 156 165 171 175 177 179 178 182 186 186 198 191 201 263 217 192 196 196 226 181 114 286 290 293 338 24 349 12 146 147 144 170 173 159 152 161 188 170 146 148 145 141 143 146 152 158 160 162 162 163 166
332 330 329 328 327 329 329 328 327 330 330 330 328 323 320 316 311 303 289 270 248 235 220 213 194 193 238 252 250 188 71 115 151 149 154 153 153 162 169 172 174 181 178 175 185 187 193 200 188 201 252 188 181 196 198 228 342 236 274 272 262 37 41 2 99 143 146 148 177 174 146 152 172 195 164 146 153 151 148 150 153 158 159 162 163 162 165 169
332 331 330 328 328 328 327 326 327 329 329 328 327 324 320 316 311 301 283 248 224 212 200 192 177 181 243 254 249 50 59 148 153 151 158 156 160 164 166 171 177 185 178 178 185 186 200 199 199 215 216 165 177 185 190 187 255 253 261 260 171 142 54 29 116 147 155 151 173 173 152 170 185 180 152 152 158 156 156 154 157 163 160 164 164 162 168 170
337 334 330 329 328 326 325 325 327 328 328 328 328 325 321 317 311 304 268 211 195 187 185 181 166 181 246 252 132 85 76 146 154 151 158 158 158 158 163 170 177 188 185 188 183 181 204 200 210 225 255 229 194 111 141 182 239 244 221 244 190 162 115 65 140 159 159 143 169 186 165 166 179 171 149 155 163 159 162 159 162 165 162 167 165 167 171 171
342 337 331 328 326 324 324 325 326 328 327 330 330 326 324 318 308 301 211 183 176 176 176 167 162 197 244 105 93 125 118 137 156 155 159 162 153 151 163 171 175 180 183 195 181 174 193 195 216 232 242 257 244 150 220 193 216 221 180 209 232 184 140 147 167 173 162 138 167 168 85 138 165 166 150 157 168 165 167 164 166 166 164 169 168 172 174 173
341 337 332 329 326 324 325 326 327 327 328 334 334 331 332 327 315 232 166 164 164 166 159 157 177 219 240 143 103 127 130 144 167 166 166 164 157 156 165 174 176 173 174 184 177 175 185 189 210 222 203 231 258 222 214 189 190 205 184 186 222 198 126 141 170 190 169 142 177 168 120 144 152 159 153 161 173 171 172 167 169 170 168 171 171 177 176 175
338 336 335 331 326 326 327 327 327 327 331 337 338 348 7 19 79 129 138 146 151 148 148 163 193 236 266 128 125 150 152 154 167 169 171 171 167 157 157 163 165 170 172 171 178 178 187 200 210 230 207 200 220 214 203 195 185 199 219 195 194 180 142 146 158 194 179 147 183 193 197 113 124 148 151 162 175 174 176 170 174 173 170 173 172 178 178 175
338 336 335 332 327 327 328 327 326 327 334 342 9 59 64 77 104 115 121 133 137 141 173 228 202 235 278 110 142 172 160 137 151 167 168 174 174 150 151 156 158 164 161 158 174 178 186 202 202 216 226 214 208 211 206 204 188 187 216 199 169 181 159 150 153 174 183 185 193 200 215 79 102 141 149 163 174 175 179 174 177 176 172 176 175 178 178 178
339 336 334 331 329 328 327 327 326 327 335 356 113 91 88 95 100 106 117 127 134 158 217 248 222 237 184 153 159 139 133 124 140 162 162 159 154 150 154 155 154 158 158 155 168 180 185 194 199 193 205 210 202 210 207 203 200 192 203 195 166 183 164 134 139 160 179 205 210 202 214 116 113 137 148 164 174 177 181 177 181 181 175 177 179 180 179 180
340 337 334 332 331 328 328 327 322 326 340 129 125 101 101 105 107 132 156 160 185 206 231 177 202 281 124 145 130 105 123 130 136 152 158 155 150 151 155 151 155 162 166 164 170 184 185 186 203 201 199 199 199 210 209 204 215 199 198 204 179 170 141 105 109 146 179 208 210 200 213 175 141 146 155 165 173 182 182 179 185 185 181 181 184 184 179 182
341 338 336 335 334 332 329 324 320 326 332 150 144 138 155 164 182 183 179 204 236 283 326 175 208 288 109 120 110 116 136 148 151 152 156 158 154 152 151 154 164 175 182 170 164 180 191 193 196 201 200 191 194 206 198 163 199 191 183 186 183 161 123 105 111 136 172 216 210 200 213 197 162 158 164 165 172 185 184 182 187 190 190 187 189 188 181 183
342 340 339 339 339 337 332 324 319 326 205 166 181 235 269 328 291 144 172 224 230 266 283 258 276 285 318 70 80 135 155 166 162 150 155 162 163 159 154 165 174 186 192 166 151 166 194 209 198 200 198 178 185 191 172 172 180 200 194 179 195 187 118 106 121 135 159 191 183 197 215 199 182 171 168 175 182 189 188 186 188 193 196 192 193 192 183 183
343 342 342 342 342 340 335 328 323 41 140 170 203 248 36 25 343 348 310 256 181 210 256 243 270 270 238 254 121 240 208 165 146 147 158 172 185 181 164 181 189 180 177 166 157 165 193 216 195 186 178 159 168 177 187 199 189 202 205 194 197 170 122 117 126 135 165 192 138 210 230 177 171 176 171 187 196 195 193 189 190 193 194 191 191 192 186 183
344 344 344 345 346 342 337 355 107 123 139 185 215 198 50 9 331 276 266 274 151 162 220 218 231 206 167 152 135 212 208 162 151 154 162 182 198 195 174 190 197 174 170 178 178 175 194 209 180 167 165 167 170 174 192 203 204 210 205 207 194 164 164 142 131 136 169 220 107 229 251 166 154 177 179 194 202 201 196 193 193 192 192 189 187 191 189 185
344 344 345 349 349 343 7 109 115 131 155 217 109 70 20 335 312 248 255 277 148 144 184 210 237 205 109 107 145 210 192 136 152 153 166 189 182 168 188 196 192 174 179 192 192 189 197 175 157 165 176 184 183 180 199 208 206 211 214 223 195 170 198 87 113 149 182 198 149 203 240 173 156 182 182 191 199 204 199 196 198 190 188 189 188 193 192 189
345 343 345 352 354 359 112 126 133 152 170 179 96 59 346 334 288 247 267 253 148 132 157 169 198 92 70 121 187 206 144 100 74 135 165 197 180 167 188 194 201 186 180 191 198 198 186 140 153 172 179 190 196 190 205 217 212 208 211 226 219 172 192 122 125 187 204 185 163 210 232 166 152 159 132 157 181 199 195 197 205 188 186 195 196 195 194 194
344 343 346 354 5 37 149 143 134 176 210 172 81 15 338 332 274 229 270 228 142 128 167 172 187 130 120 170 161 181 166 120 59 116 157 208 251 213 179 173 220 200 172 183 210 202 150 150 173 181 177 188 203 203 202 212 227 212 190 202 215 220 217 200 190 214 231 171 137 224 248 174 139 79 24 27 120 148 162 190 213 193 188 199 205 199 196 198
345 346 350 359 17 33 164 75 123 197 223 114 57 337 332 320 232 195 254 201 133 119 175 147 100 111 101 134 178 201 166 131 116 106 109 354 254 232 209 176 192 179 162 180 209 181 143 158 178 182 185 190 201 205 188 199 231 204 130 175 206 216 222 218 218 225 253 24 143 207 248 222 145 85 27 24 87 95 108 157 218 208 202 202 207 206 201 201
349 351 357 12 29 28 32 42 205 215 88 55 349 327 335 290 190 212 252 168 113 259 178 107 68 72 127 153 179 161 106 129 151 100 77 54 207 228 220 185 187 167 167 195 181 149 158 175 177 178 190 197 204 207 177 191 227 177 98 179 201 212 223 218 225 228 222 253 218 191 206 230 155 105 76 74 76 66 58 32 331 240 221 210 209 208 205 200
354 358 7 17 27 39 65 109 261 261 42 357 313 334 322 220 201 248 246 130 98 211 131 103 142 161 161 144 122 120 105 102 116 96 136 177 82 246 226 161 193 156 168 219 217 138 152 176 179 185 197 200 196 197 172 195 218 111 111 188 171 188 216 213 224 222 187 232 232 187 190 219 145 103 95 74 51 29 25 11 2 348 297 231 215 211 209 202
360 9 19 18 23 18 337 193 201 264 295 300 316 320 271 213 229 241 183 102 85 141 127 202 162 150 165 145 104 113 110 79 86 114 137 133 119 165 62 66 206 161 169 213 231 112 117 101 132 185 267 343 153 156 185 212 218 141 160 183 166 169 190 203 220 222 204 223 228 202 197 221 200 95 78 62 34 13 6 3 1 350 339 308 236 217 212 208
6 22 28 23 25 349 301 195 152 277 279 291 300 274 240 218 242 232 125 85 55 130 150 164 141 164 170 147 115 114 105 83 93 137 137 134 132 136 131 178 195 170 168 181 149 125 137 144 134 88 19 351 204 185 194 216 215 195 193 185 173 167 171 194 196 209 222 222 217 200 192 222 220 106 80 66 40 19 10 5 3 354 347 342 307 246 218 211
12 31 28 18 14 354 313 299 302 285 277 280 270 248 231 212 211 99 98 163 221 89 116 131 135 155 142 116 104 109 103 87 79 93 113 128 112 89 64 36 185 182 173 167 160 152 147 141 128 119 81 29 217 196 174 190 203 205 199 185 182 174 174 197 190 198 221 220 200 190 192 211 136 90 80 67 46 27 23 14 7 3 357 350 334 303 243 217
359 30 20 5 356 348 312 289 286 279 266 255 241 235 240 205 115 59 73 136 50 52 76 144 144 150 137 117 103 92 88 83 84 97 97 106 114 97 61 39 4 282 195 155 162 165 147 131 139 161 145 29 273 213 174 182 194 201 199 189 193 185 181 196 192 197 213 206 172 171 197 194 126 96 80 76 53 28 31 25 17 13 9 6 358 341 295 230
303 314 356 354 350 351 338 299 272 259 229 225 226 230 232 129 92 63 68 70 70 89 119 151 146 139 127 117 110 88 79 75 74 122 131 121 116 107 78 48 14 330 254 167 163 174 162 148 136 72 88 11 332 309 327 239 189 193 202 202 210 208 199 200 196 199 201 189 167 163 197 195 146 137 97 86 67 40 39 36 32 29 24 21 16 10 357 315
314 296 334 347 349 354 351 328 229 213 210 224 229 220 157 94 81 68 66 56 73 118 133 164 159 138 114 99 108 77 21 73 89 96 101 94 79 70 52 31 18 358 298 212 161 169 161 116 77 48 38 360 2 11 336 298 189 182 199 215 222 232 230 220 205 203 198 186 175 170 159 88 123 136 113 90 76 53 42 40 42 36 31 30 26 21 11 356
336 318 339 354 357 356 353 341 205 197 226 248 231 88 64 63 32 9 31 360 342 106 149 167 166 148 133 120 119 99 48 99 132 107 85 85 73 53 40 34 18 4 339 289 166 175 178 104 90 110 101 37 10 23 355 310 226 175 191 206 178 18 293 254 192 196 207 200 180 161 124 104 127 132 104 88 73 56 39 36 42 38 33 33 28 22 12 2
332 305 360 15 10 359 357 6 249 226 245 271 80 80 50 51 19 354 354 328 326 292 208 167 141 177 143 134 119 116 122 125 142 144 109 108 74 33 24 46 25 11 4 334 293 72 248 119 105 116 108 79 33 17 111 350 308 221 192 179 111 48 282 262 220 186 200 202 177 164 149 144 169 158 109 91 60 50 39 35 38 38 35 33 30 23 13 5
324 261 31 23 8 352 354 9 290 250 248 71 92 86 47 50 24 355 343 327 300 262 251 154 91 297 155 140 119 115 155 169 152 132 109 113 75 17 5 39 28 20 9 323 285 27 313 135 119 110 103 114 147 216 175 143 326 312 306 152 176 215 209 216 228 199 197 203 175 158 149 137 172 139 97 67 40 41 38 36 34 35 35 31 28 23 16 9
307 255 123 21 359 346 352 339 278 258 232 98 103 94 65 63 40 19 3 322 306 286 289 79 86 308 109 129 126 107 92 148 139 140 94 70 83 30 10 14 9 16 9 332 323 29 292 223 138 123 129 156 175 231 200 148 149 221 243 213 227 249 215 206 224 212 208 205 167 156 154 123 81 90 78 57 46 39 34 37 35 35 36 32 28 24 19 14
300 274 82 14 353 347 333 303 280 288 88 81 81 85 73 68 55 41 32 360 337 336 358 75 108 130 101 99 117 98 61 96 115 113 77 78 99 69 35 8 347 356 351 331 357 15 262 246 149 130 155 191 177 41 26 31 49 206 215 202 193 227 262 243 228 232 248 225 182 180 172 119 89 89 76 66 60 48 40 42 40 38 36 34 32 28 24 19
285 278 59 7 349 331 302 289 51 56 91 85 70 77 63 34 46 52 45 44 45 28 38 65 78 104 113 102 104 102 93 102 100 91 98 88 70 72 40 4 342 335 322 297 35 16 304 253 191 146 160 162 95 60 36 15 359 344 285 251 219 231 230 219 215 212 251 271 240 193 160 106 94 106 82 72 65 58 51 46 46 45 38 36 34 29 28 25
293 360 20 354 342 322 310 81 78 45 78 84 62 63 52 6 22 43 40 42 59 54 51 62 62 70 91 85 92 113 104 89 81 82 94 76 49 49 29 355 331 325 326 351 69 17 334 282 145 113 102 97 102 85 32 14 344 345 19 13 326 277 248 233 223 204 210 241 289 197 128 101 104 112 95 85 71 65 58 50 50 49 41 40 38 31 29 28
13 28 7 354 337 301 304 88 93 71 77 90 83 69 59 40 39 43 37 32 41 51 57 61 52 51 66 71 98 115 92 67 73 81 94 93 67 47 24 357 335 323 327 360 87 13 310 271 116 110 101 110 133 144 59 342 265 245 58 25 338 321 306 288 311 299 221 199 220 218 142 113 133 124 104 100 82 69 64 56 51 49 43 43 42 34 29 29
36 29 22 17 354 289 271 83 95 94 90 103 105 91 76 54 40 42 48 40 35 50 67 61 46 53 67 70 90 93 56 55 93 85 89 101 79 47 27 11 359 1 7 10 14 353 319 284 214 172 162 164 177 185 183 193 221 161 68 33 8 9 333 286 301 283 244 184 278 245 167 115 135 137 114 104 88 71 65 61 53 50 44 41 43 37 30 29
349 66 50 39 31 19 47 57 80 104 105 103 95 91 94 77 48 44 54 54 44 45 68 67 53 71 85 85 91 82 42 58 106 117 104 102 97 65 35 24 20 34 39 17 344 319 318 354 304 247 213 198 196 186 177 173 154 120 66 43 25 14 347 299 245 228 223 136 339 277 130 117 134 136 115 98 90 77 67 61 55 52 49 46 44 39 32 31
297 43 50 59 60 64 71 47 45 92 103 102 90 75 85 94 76 45 42 56 58 52 66 72 60 82 93 93 99 89 69 71 101 137 129 112 104 72 36 33 43 42 39 16 338 310 268 71 12 345 351 25 70 66 34 23 140 129 78 54 32 14 355 309 248 225 215 162 116 68 107 131 142 140 122 96 82 79 69 60 55 48 45 49 45 39 38 36
333 22 16 38 71 80 94 62 33 58 62 46 77 70 78 97 97 61 35 45 63 57 64 66 48 75 99 103 103 89 82 90 100 117 117 105 103 94 57 40 49 36 7 1 344 301 212 144 64 42 50 54 64 69 50 38 85 97 81 65 36 20 2 336 339 44 346 217 150 105 119 139 139 135 122 96 75 76 67 56 54 46 39 42 41 37 39 37
16 71 26 333 322 49 74 47 29 56 71 63 80 102 96 97 92 74 62 63 59 26 42 78 64 67 86 92 106 107 106 106 104 108 113 110 116 120 99 60 50 27 334 37 30 311 258 134 102 97 94 80 70 70 62 57 78 89 63 51 42 25 17 34 61 52 1 349 124 124 137 137 130 129 117 95 69 70 67 53 50 47 39 38 37 36 35 34
64 105 70 322 321 55 69 54 30 65 76 73 81 73 74 87 87 76 61 72 71 39 30 90 82 74 84 77 100 120 109 102 119 123 118 117 124 140 121 97 68 43 8 63 63 337 304 98 120 151 128 106 87 84 77 49 77 195 198 152 156 359 71 78 79 76 60 72 106 125 133 121 111 112 110 102 73 61 64 52 48 44 35 34 35 35 33 30
28 57 65 106 96 73 77 82 46 92 87 70 89 81 60 73 89 88 51 38 77 79 71 89 87 79 90 93 99 101 69 41 105 124 133 139 141 180 56 62 55 47 23 54 73 336 301 121 145 202 172 138 122 126 150 239 259 225 210 199 197 185 175 178 163 141 136 119 118 131 137 128 119 119 121 124 121 89 63 39 41 37 30 30 32 32 31 27
12 5 327 332 93 50 18 75 42 148 102 84 94 102 99 87 87 91 69 41 56 94 96 94 92 85 89 93 91 89 78 65 87 108 120 91 71 71 62 37 5 11 46 64 63 316 286 152 162 225 224 158 140 182 213 224 239 233 220 200 192 189 183 171 156 170 192 150 145 163 168 140 132 140 144 145 155 123 77 43 31 25 22 25 29 29 29 25
11 3 307 289 102 39 289 121 155 257 83 75 85 97 103 103 97 90 83 68 64 79 88 96 101 98 97 94 85 76 74 68 70 86 95 65 67 95 87 67 27 346 23 60 39 360 249 178 168 220 240 151 136 202 254 232 230 227 197 176 178 178 165 155 149 159 188 176 177 191 132 114 124 147 159 148 131 79 66 51 21 12 11 16 24 26 24 23